Volver al catálogo

STARLINK-33804

ActivoComunicacionesVLEO
NORAD 63511·PAYLOAD·🇺🇸 United States

Lanzado Apr 7, 2025 desde Vandenberg Space Force Base

Loading…

Próximos Pases (próximas 24 horas)

TLE

ActualizadoSource: CelesTrak SupGP

Época: Sep 15, 2026, 03:38 UTC

1 63511C 25071U   26258.15187500  .00065337  00000+0  21004-2 0  2581
2 63511  53.1606 338.7323 0001231  87.0346 258.4222 15.31678586    19

Sigue STARLINK-33804 en tiempo real con AllMySat

Download on the App Store